STARLINK-32915, 63152

Orbit data source: Space-Track

STARLINK-32915, 63152 is a payload satellite owned by SpaceX/Seattle (US) in LEO that was launched on Mon, 03 Mar 2025 UTC via an FALCON 9 launch vehicle from the Air Force Eastern Test Range (AFETR). Payload-class satellites include a variety of spacecraft equipped with specific instruments for various scientific and technological missions. These include communications satellites like Starlink; space stations such as the ISS; scientific satellites like the Hubble; Earth observation satellites from companies like Planet Labs, Umbra, and HawkEye 360; GPS; miniature CubeSats for education and research; and military/defense satellites.

Loading next visibility...
Identifier
63152, 2025-043W
Orbit
LEO
Country
Flag of USUS
Related business
Manufacturer
SpaceX/Seattle
Mission
Operational Commercial Communications
Bus & Motor
STARLINK V2M, Unknown motor
Mass
730 kg wet, ~700 kg dry
Launch date (UTC)
2025-03-03 (8 months ago)
Launch vehicle
FALCON 9
Launch site
Air Force Eastern Test Range (AFETR)
Object type
Payload
Rocket body
Debris
Shape & HBR
Box + 2 Pan, 17.7 m
Radar Cross Section
33.884 m², Large (>1 m²)

Expand to show TLE details & history
Last TLE update: 11 hours ago

TLE from 11 hours ago
0 STARLINK-32915
1 63152U 25043W   25291.21672592  .00034326  00000-0  12501-2 0  9993
2 63152  43.0028 107.6621 0001442 277.2307  82.8381 15.27606182 35497
Epoch: 2025-10-18T05:12Z
TLE epoch observation values (Epoch: 2025-10-18T05:12:05.119Z)
Latitude
-0°
Longitude
2.68985°
Altitude
482.623 km
Speed
7.626 km/s
True Right ascension
07h 10m 38s
True Declination
0° 00' 00"
Sunlit
Object was in daylight at epoch
Visualization orbit readout
Latitude
Unknown
Longitude
Unknown
Altitude
Unknown
Speed
Unknown
Apparent Right ascension
Unknown
Apparent Declination
Unknown
Sunlit
N/A
Visualization observer readout
Local Sidereal Time
11:00:48
Azimuth
Unknown
Elevation
Unknown
Doppler factor
Unknown
Orbital elements
Apogee altitude
485.905 km
Perigee altitude
483.926 km
Semi-major axis
6,863.052 km
Eccentricity
0.00014
Inclination
43.0028°
RAAN
107.6621°
Arg. of periapsis
277.2307°
True anomaly
82.8545°
Mean anomaly
82.8381°
Eccentric anomaly
82.8463°
Mean motion
3.8174 °/min
Orbital period
94.31 mins
BSTAR
0.0012501
Loading maneuver chart data...
Computing Atmospheric mass density...
Loading historical data...
Loading historical data...
Loading historical data...
Loading historical data...
Loading historical data...
Loading historical data...
Loading historical data...

Documentation

Showing up to 5 results
|